K4HG-2 Weather Reports


Display with metric or nautical units.
time (UTC)temp
F
wind
direction
speed
MPH
gust
MPH
rain 1hr
in
rain 24hr
in
rain mn
in
humidity
%
barometer
mb
20170117170616 78 146 4.0 8.0 0.00 0.00 0.00 82 1023.2
20170117170316 79 127 9.0 8.0 0.00 0.00 0.00 83 1023.3
20170117170015 78 102 3.0 8.0 0.00 0.00 0.00 83 1023.4
20170117165716 78 130 7.0 11.0 0.00 0.00 0.00 84 1023.4
20170117165416 78 144 6.0 11.0 0.00 0.00 0.00 83 1023.4
20170117165115 78 102 7.0 7.0 0.00 0.00 0.00 82 1023.4
20170117164816 78 129 3.0 7.0 0.00 0.00 0.00 82 1023.5
20170117164516 78 123 2.0 9.0 0.00 0.00 0.00 82 1023.5
20170117164215 78 101 0.0 9.0 0.00 0.00 0.00 84 1023.5
20170117163915 78 157 2.0 9.0 0.00 0.00 0.00 84 1023.6
20170117163615 78 91 7.0 8.0 0.00 0.00 0.00 85 1023.6
20170117163016 77 70 3.0 8.0 0.00 0.00 0.00 86 1023.7
20170117162715 78 132 5.0 8.0 0.00 0.00 0.00 86 1023.8
20170117162416 78 219 4.0 8.0 0.00 0.00 0.00 85 1023.8
20170117162116 78 108 0.0 7.0 0.00 0.00 0.00 85 1023.7
20170117161816 78 71 1.0 7.0 0.00 0.00 0.00 86 1023.8
20170117161516 78 119 4.0 9.0 0.00 0.00 0.00 86 1023.8
20170117161215 78 277 0.0 8.0 0.00 0.00 0.00 86 1023.9
20170117160915 78 109 2.0 8.0 0.00 0.00 0.00 86 1023.9
20170117160616 78 122 2.0 10.0 0.00 0.00 0.00 86 1023.9
20170117160315 78 99 2.0 10.0 0.00 0.00 0.00 87 1023.9
20170117160016 78 92 5.0 13.0 0.00 0.00 0.00 87 1024.0
20170117155715 78 156 0.0 8.0 0.00 0.00 0.00 87 1024.0
20170117155416 78 101 7.0 8.0 0.00 0.00 0.00 87 1024.0
20170117155115 78 142 6.0 11.0 0.00 0.00 0.00 85 1024.0
20170117154816 78 151 7.0 11.0 0.00 0.00 0.00 85 1023.9
20170117154515 78 123 3.0 8.0 0.00 0.00 0.00 86 1024.0
20170117154215 78 135 3.0 8.0 0.00 0.00 0.00 85 1024.1
20170117153916 78 130 5.0 8.0 0.00 0.00 0.00 85 1024.0
20170117153615 78 116 1.0 12.0 0.00 0.00 0.00 85 1024.1
20170117153316 78 143 2.0 12.0 0.00 0.00 0.00 86 1024.0
20170117153016 78 112 4.0 7.0 0.00 0.00 0.00 87 1024.1
20170117152715 78 126 4.0 7.0 0.00 0.00 0.00 87 1024.0
20170117152416 78 71 1.0 7.0 0.00 0.00 0.00 89 1024.0
20170117152115 77 84 2.0 9.0 0.00 0.00 0.00 89 1024.0
20170117151816 77 118 2.0 9.0 0.00 0.00 0.00 89 1023.9
20170117151215 77 104 4.0 8.0 0.00 0.00 0.00 91 1024.0
20170117150916 77 113 6.0 8.0 0.00 0.00 0.00 91 1024.0
20170117150615 77 136 3.0 9.0 0.00 0.00 0.00 91 1024.0
20170117150315 77 98 0.0 9.0 0.00 0.00 0.00 91 1024.0
20170117150016 76 81 0.0 10.0 0.00 0.00 0.00 90 1024.0
20170117145716 76 118 2.0 9.0 0.00 0.00 0.00 90 1023.9
20170117145415 76 104 2.0 9.0 0.00 0.00 0.00 90 1023.9
20170117145116 77 116 4.0 10.0 0.00 0.00 0.00 89 1023.8
20170117144816 76 109 5.0 10.0 0.00 0.00 0.00 88 1023.7
20170117144516 76 130 3.0 14.0 0.00 0.00 0.00 88 1023.7
20170117144216 76 112 6.0 9.0 0.00 0.00 0.00 88 1023.7
20170117143915 77 154 3.0 9.0 0.00 0.00 0.00 88 1023.7
20170117143615 77 115 5.0 10.0 0.00 0.00 0.00 88 1023.7
20170117143316 77 140 3.0 10.0 0.00 0.00 0.00 89 1023.6
20170117143016 76 147 6.0 10.0 0.00 0.00 0.00 89 1023.6
20170117142716 77 137 6.0 10.0 0.00 0.00 0.00 89 1023.6
20170117142415 77 97 7.0 10.0 0.00 0.00 0.00 89 1023.5
20170117142116 76 95 9.0 10.0 0.00 0.00 0.00 90 1023.4
20170117141816 77 126 8.0 10.0 0.00 0.00 0.00 91 1023.4
20170117141515 76 84 6.0 5.0 0.00 0.00 0.00 92 1023.4
20170117141216 76 97 1.0 6.0 0.00 0.00 0.00 93 1023.3
20170117140915 76 123 0.0 6.0 0.00 0.00 0.00 93 1023.3
20170117140616 75 94 0.0 5.0 0.00 0.00 0.00 92 1023.3
20170117140315 75 90 3.0 5.0 0.00 0.00 0.00 91 1023.3
20170117140015 75 80 1.0 10.0 0.00 0.00 0.00 90 1023.3
20170117135715 75 139 2.0 10.0 0.00 0.00 0.00 90 1023.3
20170117135416 75 118 3.0 10.0 0.00 0.00 0.00 90 1023.2
20170117135115 75 109 3.0 10.0 0.00 0.00 0.00 90 1023.2
20170117134815 76 126 6.0 10.0 0.00 0.00 0.00 90 1023.2
20170117134515 76 92 3.0 7.0 0.00 0.00 0.00 90 1023.1
20170117134216 76 109 2.0 11.0 0.00 0.00 0.00 90 1023.2
20170117133915 76 125 5.0 11.0 0.00 0.00 0.00 89 1023.2
20170117133616 76 127 4.0 8.0 0.00 0.00 0.00 90 1023.2
20170117133316 76 94 2.0 8.0 0.00 0.00 0.00 90 1023.1
20170117133016 76 105 2.0 9.0 0.00 0.00 0.00 91 1023.1
20170117132716 76 167 2.0 8.0 0.00 0.00 0.00 92 1023.1
20170117132416 76 113 3.0 8.0 0.00 0.00 0.00 92 1023.1
20170117132115 76 129 1.0 9.0 0.00 0.00 0.00 93 1023.0
20170117131816 75 108 3.0 9.0 0.00 0.00 0.00 93 1023.0
20170117131525 76 130 2.0 9.0 0.00 0.00 0.00 93 1022.9
20170117131215 75 112 5.0 8.0 0.00 0.00 0.00 93 1022.9
20170117130916 75 132 5.0 8.0 0.00 0.00 0.00 93 1022.9
20170117130615 75 91 0.0 6.0 0.00 0.00 0.00 92 1022.8
20170117130316 75 136 2.0 6.0 0.00 0.00 0.00 92 1022.8
20170117130015 75 88 1.0 7.0 0.00 0.00 0.00 92 1022.7
20170117125715 75 125 4.0 12.0 0.00 0.00 0.00 92 1022.7
20170117125415 75 119 3.0 12.0 0.00 0.00 0.00 92 1022.7
20170117125116 75 142 4.0 9.0 0.00 0.00 0.00 92 1022.6
20170117124815 74 116 1.0 9.0 0.00 0.00 0.00 92 1022.6
20170117124515 74 112 4.0 9.0 0.00 0.00 0.00 92 1022.6
20170117124215 74 105 2.0 8.0 0.00 0.00 0.00 92 1022.6
20170117123915 74 143 5.0 8.0 0.00 0.00 0.00 93 1022.5
20170117123616 74 130 4.0 8.0 0.00 0.00 0.00 94 1022.5
20170117123316 74 102 5.0 8.0 0.00 0.00 0.00 95 1022.5
20170117123015 74 85 5.0 8.0 0.00 0.00 0.00 95 1022.5
20170117122716 74 111 5.0 10.0 0.00 0.00 0.00 95 1022.5
20170117122415 74 111 1.0 10.0 0.00 0.00 0.00 94 1022.4
20170117122116 74 87 0.0 8.0 0.00 0.00 0.00 94 1022.4
20170117121816 74 104 3.0 8.0 0.00 0.00 0.00 94 1022.4
20170117121516 74 108 6.0 8.0 0.00 0.00 0.00 94 1022.4
20170117121215 74 95 1.0 9.0 0.00 0.00 0.00 94 1022.4
20170117120916 74 84 0.0 9.0 0.00 0.00 0.00 94 1022.3
20170117120615 74 104 4.0 8.0 0.00 0.00 0.00 94 1022.3
20170117120316 74 84 0.0 8.0 0.00 0.00 0.00 94 1022.2
20170117120016 74 137 4.0 9.0 0.00 0.00 0.00 94 1022.2
20170117115715 74 168 4.0 5.0 0.00 0.00 0.00 94 1022.1
20170117115416 74 91 0.0 5.0 0.00 0.00 0.00 93 1022.1
20170117115115 75 118 3.0 6.0 0.00 0.00 0.00 92 1022.1
20170117114816 74 78 2.0 6.0 0.00 0.00 0.00 91 1022.0
20170117114516 75 120 2.0 8.0 0.00 0.00 0.00 91 1022.0
20170117114216 75 111 4.0 8.0 0.00 0.00 0.00 91 1022.0
20170117113916 74 98 1.0 8.0 0.00 0.00 0.00 90 1021.9
20170117113615 74 95 4.0 9.0 0.00 0.00 0.00 91 1021.9
20170117113316 74 84 4.0 9.0 0.00 0.00 0.00 91 1021.8
20170117113016 74 108 6.0 9.0 0.00 0.00 0.00 91 1021.7
20170117112716 75 101 4.0 9.0 0.00 0.00 0.00 91 1021.8
20170117112416 74 157 7.0 9.0 0.00 0.00 0.00 91 1021.7
20170117112115 75 125 5.0 10.0 0.00 0.00 0.00 90 1021.6
20170117111815 75 112 2.0 10.0 0.00 0.00 0.00 90 1021.6
20170117111515 75 157 2.0 9.0 0.00 0.00 0.00 90 1021.6
20170117111216 74 77 5.0 10.0 0.00 0.00 0.00 91 1021.6
20170117110915 75 113 5.0 10.0 0.00 0.00 0.00 91 1021.6
20170117110615 75 115 4.0 14.0 0.00 0.00 0.00 90 1021.5
20170117110316 75 129 4.0 14.0 0.00 0.00 0.00 90 1021.5
20170117110015 74 157 2.0 12.0 0.00 0.00 0.00 90 1021.4
20170117105716 75 130 5.0 11.0 0.00 0.00 0.00 90 1021.4
20170117105415 74 111 5.0 11.0 0.00 0.00 0.00 91 1021.4
20170117105116 74 127 2.0 10.0 0.00 0.00 0.00 91 1021.3
20170117104816 75 129 3.0 10.0 0.00 0.00 0.00 92 1021.3
20170117104516 74 125 5.0 11.0 0.00 0.00 0.00 92 1021.3
20170117104216 74 129 5.0 12.0 0.00 0.00 0.00 92 1021.2
20170117103915 75 113 5.0 12.0 0.00 0.00 0.00 92 1021.2
20170117103615 74 126 5.0 10.0 0.00 0.00 0.00 92 1021.2
20170117103316 74 98 11.0 10.0 0.00 0.00 0.00 93 1021.2
20170117103016 74 202 1.0 13.0 0.00 0.00 0.00 94 1021.2
20170117102716 74 113 7.0 14.0 0.00 0.00 0.00 94 1021.1
20170117102416 74 109 5.0 14.0 0.00 0.00 0.00 94 1021.2
20170117102115 74 142 5.0 12.0 0.00 0.00 0.00 94 1021.3
20170117101816 74 119 4.0 12.0 0.00 0.00 0.00 94 1021.3
20170117101516 74 91 3.0 9.0 0.00 0.00 0.00 95 1021.4
20170117101215 74 101 3.0 9.0 0.00 0.00 0.00 96 1021.5
20170117100916 74 115 7.0 9.0 0.00 0.00 0.00 96 1021.5
20170117100615 74 125 3.0 10.0 0.00 0.00 0.00 97 1021.5
20170117100315 74 127 4.0 10.0 0.00 0.00 0.00 97 1021.5
20170117100015 74 70 3.0 12.0 0.00 0.00 0.00 97 1021.4
20170117095715 74 118 4.0 10.0 0.00 0.00 0.00 97 1021.5
20170117095415 74 98 4.0 10.0 0.00 0.00 0.00 97 1021.4
20170117095115 74 136 6.0 9.0 0.00 0.00 0.00 97 1021.3
20170117094816 74 113 6.0 9.0 0.00 0.00 0.00 97 1021.3
20170117094515 74 119 6.0 11.0 0.00 0.00 0.00 98 1021.3
20170117094216 74 101 1.0 9.0 0.00 0.00 0.00 98 1021.2
20170117093916 74 104 6.0 9.0 0.00 0.00 0.00 98 1021.3
20170117093615 74 133 3.0 9.0 0.00 0.00 0.00 98 1021.3
20170117093316 74 116 4.0 9.0 0.00 0.00 0.00 98 1021.3
20170117093016 74 118 4.0 8.0 0.00 0.00 0.00 98 1021.3
20170117092715 74 90 3.0 9.0 0.00 0.00 0.00 98 1021.3
20170117092415 74 104 5.0 9.0 0.00 0.00 0.00 97 1021.3
20170117092116 74 133 2.0 11.0 0.00 0.00 0.00 97 1021.3
20170117091815 74 143 3.0 11.0 0.00 0.00 0.00 96 1021.3
20170117091517 74 120 5.0 9.0 0.00 0.00 0.00 96 1021.3
20170117091216 74 90 4.0 10.0 0.00 0.00 0.00 96 1021.3
20170117090916 74 97 8.0 10.0 0.00 0.00 0.00 97 1021.3
20170117090615 74 115 9.0 10.0 0.00 0.00 0.00 97 1021.4
20170117090315 74 95 3.0 10.0 0.00 0.00 0.00 97 1021.5
20170117090015 74 87 4.0 10.0 0.00 0.00 0.00 97 1021.5
20170117085716 74 116 7.0 10.0 0.00 0.00 0.00 98 1021.5
20170117085416 74 125 4.0 10.0 0.00 0.00 0.00 98 1021.5
20170117085115 74 77 6.0 8.0 0.00 0.00 0.00 98 1021.6
20170117084815 74 123 3.0 8.0 0.00 0.00 0.00 98 1021.6
20170117084516 74 105 2.0 9.0 0.00 0.00 0.00 98 1021.6
20170117084215 74 104 1.0 11.0 0.00 0.00 0.00 97 1021.6
20170117083916 74 98 4.0 11.0 0.00 0.00 0.00 97 1021.6
20170117083616 74 122 3.0 10.0 0.00 0.00 0.00 97 1021.6
20170117083315 74 144 5.0 10.0 0.00 0.00 0.00 97 1021.5
20170117083016 74 153 7.0 9.0 0.00 0.00 0.00 97 1021.7
20170117082715 74 119 5.0 11.0 0.00 0.00 0.00 97 1021.7
20170117082415 74 105 2.0 11.0 0.00 0.00 0.00 98 1021.7
20170117082115 74 118 2.0 9.0 0.00 0.00 0.00 98 1021.7
20170117081815 74 125 3.0 9.0 0.00 0.00 0.00 98 1021.7
20170117081516 74 146 2.0 8.0 0.00 0.00 0.00 98 1021.7
20170117081215 74 132 4.0 10.0 0.00 0.00 0.00 98 1021.7
20170117080916 74 123 5.0 10.0 0.00 0.00 0.00 98 1021.7
20170117080615 74 139 1.0 10.0 0.00 0.00 0.00 98 1021.7
20170117080315 74 140 6.0 10.0 0.00 0.00 0.00 98 1021.7
20170117080016 74 108 2.0 10.0 0.00 0.00 0.00 98 1021.7
20170117075716 74 91 3.0 9.0 0.00 0.00 0.00 98 1021.8
20170117075415 74 109 6.0 9.0 0.00 0.00 0.00 98 1021.8
20170117075116 74 108 8.0 10.0 0.00 0.00 0.00 98 1021.8
20170117074816 74 160 1.0 10.0 0.00 0.00 0.00 98 1021.8
20170117074516 74 98 4.0 11.0 0.00 0.00 0.00 98 1021.8
20170117074216 74 137 5.0 11.0 0.00 0.00 0.00 98 1021.9
20170117073916 74 153 4.0 11.0 0.00 0.00 0.00 98 1021.9
20170117073615 74 109 3.0 11.0 0.00 0.00 0.00 97 1021.9
20170117073316 74 127 5.0 11.0 0.00 0.00 0.00 97 1021.9
20170117073016 74 87 6.0 11.0 0.00 0.00 0.00 97 1021.9
20170117072716 74 109 5.0 10.0 0.00 0.00 0.00 97 1022.0
20170117072415 74 118 5.0 10.0 0.00 0.00 0.00 97 1021.9
20170117072116 74 109 7.0 13.0 0.00 0.00 0.00 98 1021.9
20170117071815 74 140 4.0 13.0 0.00 0.00 0.00 98 1022.0
20170117071516 74 125 6.0 11.0 0.00 0.00 0.00 98 1022.0
20170117071216 74 146 8.0 10.0 0.00 0.00 0.00 98 1022.0
20170117070915 74 127 6.0 10.0 0.00 0.00 0.00 98 1022.0
20170117070616 74 118 5.0 13.0 0.00 0.00 0.00 98 1022.0
20170117070316 74 94 6.0 13.0 0.00 0.00 0.00 98 1022.0
20170117070015 74 88 6.0 11.0 0.00 0.00 0.00 98 1022.0
20170117065715 74 106 6.0 9.0 0.00 0.00 0.00 99 1022.0
20170117065416 74 119 7.0 9.0 0.00 0.00 0.00 99 1022.1
20170117065116 74 143 2.0 14.0 0.00 0.00 0.00 99 1022.0
20170117064815 74 136 7.0 14.0 0.00 0.00 0.00 99 1022.1
20170117064515 74 127 6.0 12.0 0.00 0.00 0.00 99 1022.0
20170117064216 74 74 5.0 9.0 0.00 0.00 0.00 99 1022.1
20170117063916 74 108 3.0 9.0 0.00 0.00 0.00 99 1022.1
20170117063616 74 71 4.0 9.0 0.00 0.00 0.00 99 1022.1
20170117063315 74 119 4.0 9.0 0.00 0.00 0.00 99 1022.2
20170117063019 74 120 6.0 10.0 0.00 0.00 0.00 99 1022.2
20170117062716 74 102 3.0 12.0 0.00 0.00 0.00 99 1022.2
20170117062415 74 113 3.0 12.0 0.00 0.00 0.00 99 1022.2
20170117062116 74 133 7.0 8.0 0.00 0.00 0.00 99 1022.3
20170117061816 74 109 5.0 8.0 0.00 0.00 0.00 99 1022.2
20170117061516 74 174 4.0 8.0 0.00 0.00 0.00 99 1022.2
20170117061215 74 140 4.0 10.0 0.00 0.00 0.00 99 1022.3
20170117060916 74 120 5.0 10.0 0.00 0.00 0.00 99 1022.3
20170117060616 74 99 2.0 10.0 0.00 0.00 0.00 99 1022.3
20170117060316 74 94 4.0 10.0 0.00 0.00 0.00 99 1022.3
20170117060016 74 113 5.0 13.0 0.00 0.00 0.00 99 1022.2
20170117055716 74 85 4.0 12.0 0.00 0.00 0.00 99 1022.2
20170117055416 74 112 7.0 12.0 0.00 0.00 0.00 100 1022.2
20170117055116 74 75 8.0 11.0 0.00 0.00 0.00 100 1022.2
20170117054815 74 149 4.0 11.0 0.00 0.00 0.00 100 1022.2
20170117054515 74 167 4.0 13.0 0.00 0.00 0.00 100 1022.2
20170117054216 74 101 5.0 11.0 0.00 0.00 0.00 100 1022.2
20170117053916 74 92 7.0 11.0 0.00 0.00 0.00 100 1022.2
20170117053615 74 120 11.0 12.0 0.00 0.00 0.00 100 1022.3
20170117053316 74 98 3.0 12.0 0.00 0.00 0.00 100 1022.3
20170117053015 74 111 5.0 12.0 0.00 0.00 0.00 100 1022.3
20170117052716 74 99 3.0 10.0 0.00 0.00 0.00 100 1022.4
20170117052416 74 106 2.0 10.0 0.00 0.00 0.00 100 1022.4
20170117052116 74 97 4.0 10.0 0.00 0.00 0.00 100 1022.3
20170117051515 74 95 6.0 9.0 0.00 0.00 0.00 100 1022.4
20170117051216 73 132 5.0 7.0 0.00 0.00 0.00 100 1022.5
20170117050917 73 119 3.0 7.0 0.00 0.00 0.00 100 1022.5
20170117050615 73 90 1.0 7.0 0.00 0.00 0.00 100 1022.6
20170117050316 74 90 1.0 7.0 0.00 0.00 0.00 100 1022.5
20170117050016 74 132 0.0 6.0 0.00 0.00 0.00 100 1022.6
20170117045715 74 136 0.0 4.0 0.00 0.00 0.00 100 1022.6
20170117045415 73 137 0.0 4.0 0.00 0.00 0.00 100 1022.5
20170117045116 74 129 1.0 3.0 0.00 0.00 0.00 100 1022.5
20170117044816 74 147 0.0 3.0 0.00 0.00 0.00 100 1022.5
20170117044515 74 106 0.0 3.0 0.00 0.00 0.00 100 1022.5
20170117044216 74 102 0.0 1.0 0.00 0.00 0.00 100 1022.5
20170117043916 74 75 0.0 1.0 0.00 0.00 0.00 100 1022.5
20170117043616 73 71 0.0 0.0 0.00 0.00 0.00 100 1022.5
20170117043316 73 71 0.0 0.0 0.00 0.00 0.00 100 1022.5
20170117043016 73 71 0.0 0.0 0.00 0.00 0.00 100 1022.5
20170117042715 74 71 0.0 0.0 0.00 0.00 0.00 100 1022.4
20170117042416 73 71 0.0 0.0 0.00 0.00 0.00 100 1022.5
20170117042116 73 71 0.0 0.0 0.00 0.00 0.00 100 1022.5
20170117041815 73 71 0.0 0.0 0.00 0.00 0.00 100 1022.4
20170117041516 73 71 0.0 5.0 0.00 0.00 0.00 100 1022.5
20170117041216 73 71 0.0 4.0 0.00 0.00 0.00 100 1022.6
20170117040916 73 74 0.0 4.0 0.00 0.00 0.00 100 1022.5
20170117040615 73 85 0.0 4.0 0.00 0.00 0.00 100 1022.6
20170117040316 73 87 0.0 4.0 0.00 0.00 0.00 100 1022.7
20170117040015 73 87 0.0 2.0 0.00 0.00 0.00 100 1022.7
20170117035716 73 84 0.0 6.0 0.00 0.00 0.00 100 1022.7
20170117035415 73 106 0.0 6.0 0.00 0.00 0.00 100 1022.8
20170117035116 73 150 5.0 9.0 0.00 0.00 0.00 100 1022.7
20170117034815 73 116 0.0 9.0 0.00 0.00 0.00 100 1022.7
20170117034515 73 132 2.0 8.0 0.00 0.00 0.00 100 1022.8
20170117034215 73 122 0.0 10.0 0.00 0.00 0.00 100 1022.7
20170117033916 73 88 0.0 10.0 0.00 0.00 0.00 100 1022.7
20170117033615 73 122 7.0 12.0 0.00 0.00 0.00 100 1022.6
20170117033316 73 75 0.0 12.0 0.00 0.00 0.00 100 1022.6
20170117033016 73 104 1.0 12.0 0.00 0.00 0.00 100 1022.7
20170117032716 73 88 2.0 11.0 0.00 0.00 0.00 100 1022.6
20170117032415 73 70 2.0 11.0 0.00 0.00 0.00 100 1022.6
20170117032116 74 126 4.0 16.0 0.00 0.00 0.00 100 1022.6
20170117031815 74 140 5.0 16.0 0.00 0.00 0.00 100 1022.6
20170117031516 74 95 6.0 11.0 0.00 0.00 0.00 100 1022.6
20170117031215 74 74 3.0 13.0 0.00 0.00 0.00 100 1022.5
20170117030915 74 98 6.0 13.0 0.00 0.00 0.00 100 1022.5
20170117030616 74 60 3.0 13.0 0.00 0.00 0.00 100 1022.5
20170117030315 74 112 5.0 13.0 0.00 0.00 0.00 100 1022.6
20170117030016 74 94 4.0 15.0 0.00 0.00 0.00 100 1022.6
20170117025716 74 98 11.0 14.0 0.00 0.00 0.00 99 1022.6
20170117025416 74 146 4.0 14.0 0.00 0.00 0.00 99 1022.5
20170117025116 74 98 5.0 12.0 0.00 0.00 0.00 99 1022.5
20170117024816 74 126 4.0 12.0 0.00 0.00 0.00 99 1022.4
20170117024515 74 113 2.0 8.0 0.00 0.00 0.00 100 1022.4
20170117024216 74 95 6.0 9.0 0.00 0.00 0.00 99 1022.4
20170117023916 74 126 5.0 9.0 0.00 0.00 0.00 99 1022.4
20170117023615 74 92 5.0 12.0 0.00 0.00 0.00 99 1022.4
20170117023316 74 80 5.0 12.0 0.00 0.00 0.00 99 1022.5
20170117023016 74 168 2.0 12.0 0.00 0.00 0.00 99 1022.5
20170117022715 74 118 6.0 14.0 0.00 0.00 0.00 99 1022.5
20170117022416 74 104 4.0 14.0 0.00 0.00 0.00 99 1022.5
20170117022116 74 113 4.0 13.0 0.00 0.00 0.00 99 1022.5
20170117021816 74 101 8.0 13.0 0.00 0.00 0.00 99 1022.5
20170117021516 74 73 4.0 16.0 0.00 0.00 0.00 98 1022.5
20170117021216 74 146 6.0 13.0 0.00 0.00 0.00 98 1022.5
20170117020915 74 81 7.0 13.0 0.00 0.00 0.00 98 1022.4
20170117020615 74 130 6.0 11.0 0.00 0.00 0.00 98 1022.5
20170117020315 74 120 9.0 11.0 0.00 0.00 0.00 98 1022.6
20170117020016 74 75 5.0 10.0 0.00 0.00 0.00 98 1022.5
20170117015715 74 135 6.0 12.0 0.00 0.00 0.00 98 1022.6
20170117015416 74 164 4.0 12.0 0.00 0.00 0.00 98 1022.6
20170117015116 74 71 3.0 12.0 0.00 0.00 0.00 98 1022.6
20170117014816 74 5 2.0 12.0 0.00 0.00 0.00 98 1022.6
20170117014516 74 99 2.0 13.0 0.00 0.00 0.00 98 1022.5
20170117014216 74 78 6.0 8.0 0.00 0.00 0.00 99 1022.7
20170117013916 74 105 3.0 8.0 0.00 0.00 0.00 99 1022.7
20170117013616 74 88 5.0 9.0 0.00 0.00 0.00 98 1022.7
20170117013316 74 40 1.0 9.0 0.00 0.00 0.00 98 1022.6
20170117013016 74 50 0.0 12.0 0.00 0.00 0.00 98 1022.7
20170117012716 74 113 4.0 9.0 0.00 0.00 0.00 98 1022.7
20170117012416 74 99 2.0 9.0 0.00 0.00 0.00 98 1022.7
20170117012116 74 139 2.0 11.0 0.00 0.00 0.00 98 1022.6
20170117011816 74 113 3.0 11.0 0.00 0.00 0.00 98 1022.6
20170117011516 75 119 7.0 9.0 0.00 0.00 0.00 98 1022.6
20170117011216 74 95 2.0 10.0 0.00 0.00 0.00 97 1022.6
20170117010915 75 151 4.0 10.0 0.00 0.00 0.00 97 1022.6
20170117010616 75 102 5.0 10.0 0.00 0.00 0.00 97 1022.7
20170117010315 75 45 2.0 10.0 0.00 0.00 0.00 97 1022.6
20170117010016 74 111 2.0 11.0 0.00 0.00 0.00 97 1022.5
20170117005716 74 130 5.0 10.0 0.00 0.00 0.00 96 1022.6
20170117005415 74 139 2.0 10.0 0.00 0.00 0.00 97 1022.5
20170117005116 75 122 6.0 10.0 0.00 0.00 0.00 97 1022.5
20170117004815 75 109 3.0 10.0 0.00 0.00 0.00 97 1022.4
20170117004516 74 136 6.0 11.0 0.00 0.00 0.00 97 1022.3
20170117004216 75 67 4.0 12.0 0.00 0.00 0.00 97 1022.2
20170117003916 74 113 0.0 12.0 0.00 0.00 0.00 96 1022.2
20170117003616 75 70 8.0 11.0 0.00 0.00 0.00 96 1022.2
20170117003316 74 149 2.0 11.0 0.00 0.00 0.00 96 1022.1
20170117003016 75 129 3.0 14.0 0.00 0.00 0.00 96 1022.1
20170117002716 75 80 3.0 11.0 0.00 0.00 0.00 96 1022.1
20170117002415 75 112 7.0 11.0 0.00 0.00 0.00 96 1022.1
20170117002115 75 111 6.0 10.0 0.00 0.00 0.00 96 1022.2
20170117001816 75 84 2.0 10.0 0.00 0.00 0.00 96 1022.3
20170117001517 75 129 3.0 10.0 0.00 0.00 0.00 96 1022.2
20170117001216 75 56 4.0 10.0 0.00 0.00 0.00 96 1022.3
20170117000915 75 123 4.0 10.0 0.00 0.00 0.00 96 1022.2
20170117000616 75 137 6.0 11.0 0.00 0.00 0.00 96 1022.1
20170117000316 75 73 5.0 11.0 0.00 0.00 0.00 96 1022.1
20170117000016 75 146 6.0 11.0 0.00 0.00 0.00 96 1022.2
20170116235716 75 54 2.0 10.0 0.00 0.00 0.00 96 1022.1
20170116235416 75 106 2.0 10.0 0.00 0.00 0.00 96 1022.0
20170116235115 75 144 3.0 10.0 0.00 0.00 0.00 95 1022.0
20170116234816 75 77 3.0 10.0 0.00 0.00 0.00 95 1022.0
20170116234515 75 104 9.0 10.0 0.00 0.00 0.00 95 1022.1
20170116234216 75 94 1.0 11.0 0.00 0.00 0.00 94 1022.1
20170116233915 75 125 6.0 11.0 0.00 0.00 0.00 94 1022.1
20170116233616 75 129 3.0 10.0 0.00 0.00 0.00 94 1022.0
20170116233316 75 160 3.0 10.0 0.00 0.00 0.00 94 1022.1
20170116233016 75 106 5.0 11.0 0.00 0.00 0.00 93 1022.1
20170116232716 75 98 3.0 11.0 0.00 0.00 0.00 93 1022.1
20170116232415 75 116 5.0 11.0 0.00 0.00 0.00 93 1022.1
20170116232116 75 98 2.0 13.0 0.00 0.00 0.00 92 1022.1
20170116231815 76 136 9.0 13.0 0.00 0.00 0.00 92 1022.2
20170116231516 76 125 2.0 12.0 0.00 0.00 0.00 92 1022.1
20170116231216 76 115 8.0 13.0 0.00 0.00 0.00 92 1022.1
20170116230916 76 130 9.0 13.0 0.00 0.00 0.00 91 1022.1
20170116230616 76 78 3.0 10.0 0.00 0.00 0.00 91 1022.1
20170116230315 76 78 3.0 10.0 0.00 0.00 0.00 91 1022.1
20170116230015 76 164 5.0 13.0 0.00 0.00 0.00 90 1022.1
20170116225716 76 119 3.0 12.0 0.00 0.00 0.00 90 1022.2
20170116225416 76 143 4.0 12.0 0.00 0.00 0.00 90 1022.2
20170116225115 76 102 7.0 12.0 0.00 0.00 0.00 89 1022.2
20170116224816 76 126 9.0 12.0 0.00 0.00 0.00 89 1022.1
20170116224516 76 132 6.0 9.0 0.00 0.00 0.00 89 1022.1
20170116224215 76 66 4.0 9.0 0.00 0.00 0.00 89 1022.1
20170116223916 76 125 3.0 9.0 0.00 0.00 0.00 88 1022.2
20170116223616 76 147 5.0 16.0 0.00 0.00 0.00 88 1022.1
20170116223316 77 97 6.0 16.0 0.00 0.00 0.00 88 1022.2
20170116223015 77 118 7.0 12.0 0.00 0.00 0.00 88 1022.1
20170116222716 77 112 7.0 13.0 0.00 0.00 0.00 88 1022.1
20170116222416 77 91 4.0 13.0 0.00 0.00 0.00 88 1022.1
20170116222116 77 111 5.0 14.0 0.00 0.00 0.00 88 1022.1
20170116221816 77 129 8.0 14.0 0.00 0.00 0.00 88 1022.1
20170116221515 77 135 5.0 13.0 0.00 0.00 0.00 87 1022.1
20170116221215 77 104 6.0 13.0 0.00 0.00 0.00 87 1022.1
20170116220916 77 189 3.0 13.0 0.00 0.00 0.00 87 1022.1
20170116220616 77 125 5.0 14.0 0.00 0.00 0.00 86 1022.1
20170116220316 77 78 9.0 14.0 0.00 0.00 0.00 87 1022.0
20170116220016 77 116 4.0 13.0 0.00 0.00 0.00 86 1022.0
20170116215715 78 85 3.0 12.0 0.00 0.00 0.00 86 1022.1
20170116215416 77 119 8.0 12.0 0.00 0.00 0.00 86 1022.0
20170116215116 77 108 5.0 10.0 0.00 0.00 0.00 86 1022.0
20170116214816 77 111 2.0 10.0 0.00 0.00 0.00 85 1022.0
20170116214515 78 105 3.0 13.0 0.00 0.00 0.00 84 1021.9
20170116214215 78 95 6.0 12.0 0.00 0.00 0.00 85 1021.9
20170116213915 77 125 3.0 12.0 0.00 0.00 0.00 85 1021.9
20170116213616 78 82 5.0 10.0 0.00 0.00 0.00 86 1021.8
20170116213316 78 126 9.0 10.0 0.00 0.00 0.00 85 1021.8
20170116213016 78 150 6.0 11.0 0.00 0.00 0.00 86 1021.8
20170116212716 78 133 6.0 13.0 0.00 0.00 0.00 85 1021.8
20170116212415 78 135 7.0 13.0 0.00 0.00 0.00 85 1021.7
20170116212116 78 111 4.0 12.0 0.00 0.00 0.00 85 1021.7
20170116211816 78 150 6.0 12.0 0.00 0.00 0.00 84 1021.7
20170116211516 78 113 3.0 10.0 0.00 0.00 0.00 85 1021.7
20170116211215 78 113 2.0 11.0 0.00 0.00 0.00 84 1021.7
20170116210916 78 149 8.0 11.0 0.00 0.00 0.00 83 1021.7
20170116210616 78 140 5.0 13.0 0.00 0.00 0.00 83 1021.7
20170116210315 78 160 5.0 13.0 0.00 0.00 0.00 82 1021.7
20170116210015 78 157 8.0 14.0 0.00 0.00 0.00 82 1021.8
20170116205715 78 106 9.0 13.0 0.00 0.00 0.00 83 1021.8
20170116205416 78 129 8.0 13.0 0.00 0.00 0.00 83 1021.8
20170116205116 78 119 8.0 12.0 0.00 0.00 0.00 82 1021.8
20170116204816 78 99 6.0 12.0 0.00 0.00 0.00 83 1021.8
20170116204516 78 133 4.0 11.0 0.00 0.00 0.00 83 1021.7
20170116204215 78 105 4.0 11.0 0.00 0.00 0.00 83 1021.7
20170116203915 78 133 6.0 11.0 0.00 0.00 0.00 83 1021.7
20170116203616 78 133 7.0 15.0 0.00 0.00 0.00 83 1021.6
20170116203316 78 118 4.0 15.0 0.00 0.00 0.00 83 1021.6
20170116203016 78 119 7.0 10.0 0.00 0.00 0.00 84 1021.6
20170116202716 78 150 3.0 13.0 0.00 0.00 0.00 84 1021.6
20170116202416 78 137 3.0 13.0 0.00 0.00 0.00 84 1021.6
20170116202116 78 108 5.0 10.0 0.00 0.00 0.00 83 1021.6
20170116201815 78 115 7.0 10.0 0.00 0.00 0.00 83 1021.6
20170116201516 78 125 6.0 12.0 0.00 0.00 0.00 83 1021.6
20170116201215 78 50 5.0 12.0 0.00 0.00 0.00 83 1021.6
20170116200916 78 126 6.0 12.0 0.00 0.00 0.00 83 1021.6
20170116200615 78 118 6.0 13.0 0.00 0.00 0.00 83 1021.5
20170116200315 78 147 12.0 13.0 0.00 0.00 0.00 83 1021.5
20170116200016 78 102 4.0 12.0 0.00 0.00 0.00 83 1021.5
20170116195715 78 108 4.0 12.0 0.00 0.00 0.00 83 1021.5
20170116195415 78 133 5.0 12.0 0.00 0.00 0.00 83 1021.5
20170116195116 78 153 2.0 12.0 0.00 0.00 0.00 83 1021.5
20170116194816 78 129 5.0 12.0 0.00 0.00 0.00 82 1021.5
20170116194516 78 127 3.0 13.0 0.00 0.00 0.00 82 1021.5
20170116194216 78 102 5.0 13.0 0.00 0.00 0.00 82 1021.5
20170116193915 78 109 10.0 13.0 0.00 0.00 0.00 81 1021.6
20170116193615 78 105 11.0 15.0 0.00 0.00 0.00 82 1021.6
20170116193316 78 99 6.0 15.0 0.00 0.00 0.00 82 1021.6
20170116193016 79 122 6.0 14.0 0.00 0.00 0.00 81 1021.6
20170116192716 79 151 7.0 15.0 0.00 0.00 0.00 80 1021.7
20170116192416 79 140 6.0 15.0 0.00 0.00 0.00 79 1021.7
20170116192116 79 147 2.0 9.0 0.00 0.00 0.00 79 1021.7
20170116191816 79 153 4.0 9.0 0.00 0.00 0.00 80 1021.7
20170116191515 79 112 5.0 13.0 0.00 0.00 0.00 80 1021.7
20170116191216 79 158 6.0 11.0 0.00 0.00 0.00 80 1021.7
20170116190916 79 136 6.0 11.0 0.00 0.00 0.00 80 1021.7
20170116190616 79 129 5.0 10.0 0.00 0.00 0.00 79 1021.7
20170116190316 79 112 4.0 10.0 0.00 0.00 0.00 79 1021.7
20170116190016 79 129 8.0 11.0 0.00 0.00 0.00 80 1021.7
20170116185715 79 154 7.0 11.0 0.00 0.00 0.00 80 1021.7
20170116185415 79 125 7.0 11.0 0.00 0.00 0.00 79 1021.7
20170116185116 79 98 6.0 12.0 0.00 0.00 0.00 80 1021.7
20170116184815 79 113 4.0 12.0 0.00 0.00 0.00 81 1021.7
20170116184515 79 118 4.0 10.0 0.00 0.00 0.00 82 1021.7
20170116184216 79 137 6.0 11.0 0.00 0.00 0.00 81 1021.8
20170116183916 79 122 4.0 11.0 0.00 0.00 0.00 80 1021.8
20170116183616 79 98 3.0 13.0 0.00 0.00 0.00 80 1021.8
20170116183316 79 92 10.0 13.0 0.00 0.00 0.00 80 1021.8
20170116183016 79 154 2.0 10.0 0.00 0.00 0.00 81 1021.8
20170116182715 79 115 2.0 12.0 0.00 0.00 0.00 81 1021.8
20170116182415 79 84 3.0 12.0 0.00 0.00 0.00 80 1021.7
20170116182116 79 101 4.0 10.0 0.00 0.00 0.00 81 1021.8
20170116181816 79 101 3.0 10.0 0.00 0.00 0.00 81 1021.8
20170116181516 79 95 2.0 12.0 0.00 0.00 0.00 81 1021.8
20170116181215 79 81 5.0 12.0 0.00 0.00 0.00 81 1021.8
20170116180915 79 129 6.0 12.0 0.00 0.00 0.00 81 1021.9
20170116180616 79 115 9.0 11.0 0.00 0.00 0.00 80 1021.9
20170116180315 79 127 3.0 11.0 0.00 0.00 0.00 80 1022.0
20170116180016 79 123 8.0 16.0 0.00 0.00 0.00 80 1022.0
20170116175716 79 98 6.0 9.0 0.00 0.00 0.00 81 1022.1
20170116175415 79 126 2.0 9.0 0.00 0.00 0.00 81 1022.1
20170116175116 79 98 3.0 12.0 0.00 0.00 0.00 80 1022.1
20170116174815 79 126 6.0 12.0 0.00 0.00 0.00 80 1022.2
20170116174515 79 125 8.0 12.0 0.00 0.00 0.00 80 1022.3
20170116174216 79 126 4.0 15.0 0.00 0.00 0.00 80 1022.4
20170116173915 79 63 4.0 15.0 0.00 0.00 0.00 79 1022.4
20170116173615 79 111 3.0 11.0 0.00 0.00 0.00 79 1022.4
20170116173316 79 126 4.0 11.0 0.00 0.00 0.00 78 1022.5
20170116173016 79 143 7.0 10.0 0.00 0.00 0.00 78 1022.6
20170116172716 79 95 4.0 11.0 0.00 0.00 0.00 77 1022.7
20170116172416 79 42 5.0 11.0 0.00 0.00 0.00 77 1022.8
20170116172115 79 118 3.0 13.0 0.00 0.00 0.00 77 1022.8
20170116171815 79 126 8.0 13.0 0.00 0.00 0.00 76 1022.9
20170116171516 79 88 7.0 12.0 0.00 0.00 0.00 77 1022.9
20170116171215 79 174 1.0 12.0 0.00 0.00 0.00 76 1023.0
20170116170916 79 109 4.0 12.0 0.00 0.00 0.00 76 1023.0